星链-31138 (STARLINK-31138 )

导读

STARLINK-31138是美国SpaceX公司星链卫星互联网星座中的一员,于2024年1月15日发射。作为低轨卫星,它运行在近地轨道,配备相控阵天线与霍尔推进器,可提供高速低延迟的互联网接入服务,补全球覆盖。星链星座计划部署数万颗卫星,该卫星旨在为偏远、基础设施薄弱区域提供联网服务,也支持商用及特殊场景通信需求,目前处于在轨运营状态,服务全球卫星互联网组网。

Basic Information
目录编号:
58806
目录名称:
STARLINK-31138
国际标识:
2024-012V
轨道中心:
EARTH
卫星名称:
星链-31138
卫星全名:
星链-31138 (STARLINK-31138 )
卫星状态:
在轨 (已飞行970 天)
发射日期:
2024-01-15 UTC
国别 :
美国 (US)
星等 :
--
This satellite is enrolled in the Space Conjunction Data Service (SCDS) and the current flight risk assessment level is: No High Risk
Orbit Information
数据来源 国际轨道数据 AOE轨道数据
星历时间 2026-09-11T14:02:44+0800
14小时前
查看轨道信息
2026-09-09T23:00:00+0800
2天前
查看轨道信息
半长轴 6861.227km 6861.183km
偏心率 0.0001128 0.0001333
轨道倾角 43.001° 42.997°
近地点辐角 270.216° 222.096°
升交点赤经 197.427° 206.616°
平近点角 89.857° 180.819°
近地点 482.316km 482.131km
远地点 483.864km 483.961km
周期 94.268分钟 94.267分钟
每日圈数 15.275665 15.275813
Detailed Information
固有亮度:
5
最大亮度:
0.3
卫星平台:
Starlink v2.0 mini
覆盖范围:
全球
运营商:
太空探索技术公司
运营商所在国:
美国
制造商(研发单位):
太空探索技术公司
制造商所在国:
美国
使用方式:
暂无
Satellite Introduction
星链(Starlink)计划是由太空探索技术公司(SpaceX)提出的一个巨型低轨卫星互联网星座项目,计划在2019年至2024年间在太空搭建由约1.2万颗卫星组成的“星链”网络,其中1584颗将部署在地球上空550千米处的近地轨道,并从2020年开始工作。该卫星仍在工作。
2D Orbit Map
3D Orbit Map
Orbit Altitude Analysis Chart
Orbit Inclination Analysis Chart
Orbit Comprehensive Analysis Chart
View Comprehensive Chart
Conjunction Data List
Event ID Objects TCA Miss Dist (km) Collision Risk Probability Collision Risk Index (CRI) Action
CDM_260912-235805-880606-762721
2026-09-12T
23:58:55+0000
0.460 km
远距离
8.666755E-5 中风险 0.74
CDM_260913-092204-649505-880621
SALSAT (46495)
2026-09-13T
09:22:57+0000
1.418 km
极远距离
6.461853E-6 低风险 0.51
CDM_260913-153802-926905-880621
2026-09-13T
15:38:05+0000
1.413 km
极远距离
6.352298E-6 低风险 0.51
CDM_260912-200305-880606-762721
2026-09-12T
20:03:32+0000
1.299 km
极远距离
3.184801E-6 低风险 0.45
CDM_260912-213705-880606-762721
2026-09-12T
21:37:41+0000
1.464 km
极远距离
2.188651E-6 低风险 0.42
CDM_260914-064205-880606-436721
2026-09-14T
06:42:21+0000
2.600 km
极远距离
1.289563E-6 低风险 0.37
CDM_260912-222405-880606-762721
2026-09-12T
22:24:46+0000
2.680 km
极远距离
5.683239E-7 极低风险 0.3
CDM_260913-013305-880606-762721
2026-09-13T
01:33:05+0000
2.994 km
极远距离
5.003098E-7 极低风险 0.29
Miss Distance Evolution Trend with All Objects
Collision Probability Evolution Trend with All Objects